Regional Weather Roundup
Issued by NWS

Home | Current Version | Previous Version | Graphics & Text | Print | Product List | Glossary On
Versions: 1 2 3 4 5 6 7 8 9 10 11 12 13 14 15 16 17 18 19 20 21 22 23 24 25 26 27 28 29 30 31 32 33 34 35 36 37 38 39 40 41 42 43 44 45 46 47 48 49 50
000
ASUS43 KLMK 301110
RWRKY
KENTUCKY REGIONAL WEATHER ROUNDUP
NATIONAL WEATHER SERVICE LOUISVILLE KY
700 AM EDT THU JUL 30 2015

NOTE "FAIR" INDICATES FEW OR NO CLOUDS BELOW 12,000 FEET
WITH NO SIGNIFICANT WEATHER AND/OR OBSTRUCTIONS TO VISIBILITY.

KYZ001>023-026-027-061>063-070>075-301200-
WESTERN AND SOUTH CENTRAL KENTUCKY

CITY           SKY/WX    TMP DP  RH WIND       PRES   REMARKS
PADUCAH        CLEAR     70  62  76 N5        30.09R
HENDERSON      CLEAR     64  61  88 CALM      30.08R
OWENSBORO      CLEAR     69  64  84 N6        30.09R
HOPKINSVILLE   MOCLDY    72  65  80 N6        30.08R
BOWLING GREEN  CLOUDY    76  68  76 N6        30.07R
GLASGOW        MOCLDY   N/A N/A N/A N7        30.06R
$$

KYZ024-025-028>034-038-045-046-053-301200-
NORTH CENTRAL KENTUCKY

CITY           SKY/WX    TMP DP  RH WIND       PRES   REMARKS
LOUISVILLE/SDF PTCLDY    72  60  66 NW6       30.06R
LOUISVILLE/LOU PTCLDY    69  61  75 CALM      30.07R
FORT KNOX      PTCLDY    66  64  93 CALM      30.06R
$$

KYZ035>037-039>044-047>052-055>060-089>105-301200-
NORTHEAST KENTUCKY

CITY           SKY/WX    TMP DP  RH WIND       PRES   REMARKS
LEXINGTON      PTCLDY    69  64  84 NW7       30.06R
COVINGTON      MOCLDY    69  60  73 NW9       30.05R
FRANKFORT      PTCLDY    68  63  84 NW7       30.05R
$$

KYZ054-064>069-076>088-106>120-301200-
SOUTHEAST KENTUCKY

CITY           SKY/WX    TMP DP  RH WIND       PRES   REMARKS
JACKSON        CLOUDY    72  69  90 CALM      30.05R
LONDON         MOCLDY    73  68  84 W6        30.05R
SOMERSET       PTCLDY    70  70 100 CALM      30.06R
MIDDLESBORO    CLOUDY    72  71  95 CALM      30.05R
MONTICELLO     CLOUDY    74  73  96 VRB3      30.08R
$$



USA.gov is the U.S. government's official web portal to all federal, state and local government web resources and services.